Location: Unspecified
(0.0000°N, 0.0000°E)
Time: 23:53:15
(UTC+00:00)

Courier 1B Rocket - All Passes

Search period start: 28 April 2016 00:00
Search period end: 08 May 2016 00:00
Orbit: 920 x 1202 km, 28.2° (Epoch: 27 April)

Date Brightness Start Highest point End Pass type
(mag) Time Alt. Az. Time Alt. Az. Time Alt. Az.
28 Apr - 00:22:29 10° NW 00:28:31 38° NNE 00:34:18 10° E night (unlit)
28 Apr - 02:15:46 10° WNW 02:21:57 55° SSW 02:28:02 10° SE night (unlit)
28 Apr - 04:12:17 10° WSW 04:15:43 15° SSW 04:19:11 10° S visible
28 Apr - 10:00:34 10° S 10:02:39 11° SSE 10:04:45 10° SE daylight
28 Apr - 11:50:26 10° SW 11:57:07 36° SSE 12:04:06 10° E daylight
28 Apr - 13:43:23 10° WSW 13:51:01 73° NNW 13:58:52 10° NE daylight
28 Apr - 15:39:08 10° WNW 15:45:11 24° NNW 15:51:14 10° NNE daylight
28 Apr - 23:21:54 10° NNW 23:27:22 26° NNE 23:32:36 10° E night (unlit)
29 Apr - 01:14:29 10° WNW 01:20:59 86° SSW 01:27:15 10° ESE night (unlit)
29 Apr - 03:09:44 10° WSW 03:14:30 22° SSW 03:19:17 10° SSE visible
29 Apr - 10:50:06 10° SSW 10:55:47 25° SSE 11:01:43 10° E daylight
29 Apr - 12:42:14 10° SW 12:49:44 79° SSE 12:57:33 10° ENE daylight
29 Apr - 14:36:52 10° W 14:43:43 34° NNW 14:50:40 10° NE daylight
29 Apr - 16:35:53 10° NW 16:38:32 12° NNW 16:41:09 10° N daylight
29 Apr - 22:21:31 10° NNW 22:26:04 18° NNE 22:30:27 10° ENE night (unlit)
30 Apr - 00:13:26 10° NW 00:20:00 62° NNE 00:26:14 10° ESE night (unlit)
30 Apr - 02:07:43 10° W 02:13:26 34° SSW 02:19:02 10° SE night (unlit)
30 Apr - 09:50:11 10° SSW 09:54:23 16° SSE 09:58:44 10° ESE daylight
30 Apr - 11:41:23 10° SW 11:48:28 53° SSE 11:55:57 10° ENE daylight
30 Apr - 13:35:04 10° WSW 13:42:20 49° NNW 13:49:50 10° NE daylight
30 Apr - 15:32:07 10° WNW 15:36:49 17° NNW 15:41:31 10° NNE daylight
30 Apr - 21:21:29 10° N 21:24:36 13° NNE 21:27:38 10° NE visible
30 Apr - 23:12:33 10° NW 23:18:56 41° NNE 23:24:57 10° E night (unlit)
01 May - 01:06:03 10° WNW 01:12:25 54° SSW 01:18:33 10° SE night (unlit)
01 May - 03:02:52 10° WSW 03:06:11 14° SSW 03:09:28 10° S visible
01 May - 08:51:35 10° S 08:52:54 11° SSE 08:54:13 10° SSE daylight
01 May - 10:40:50 10° SW 10:47:13 36° SSE 10:54:00 10° E daylight
01 May - 12:33:39 10° WSW 12:41:01 71° NNW 12:48:46 10° NE daylight
01 May - 14:29:20 10° WNW 14:35:13 24° NNW 14:41:12 10° NNE daylight
01 May - 22:11:50 10° NNW 22:17:44 28° NNE 22:23:18 10° E visible
02 May - 00:04:39 10° WNW 00:11:26 84° SSW 00:17:49 10° ESE night (unlit)
02 May - 02:00:08 10° WSW 02:04:59 22° SSW 02:09:44 10° SSE night (unlit)
02 May - 09:40:35 10° SSW 09:45:58 24° SSE 09:51:37 10° E daylight
02 May - 11:32:36 10° SW 11:39:46 80° SSE 11:47:26 10° ENE daylight
02 May - 13:27:09 10° W 13:33:44 33° NNW 13:40:34 10° NE daylight
02 May - 15:26:05 10° NW 15:28:36 12° NNW 15:31:07 10° N daylight
02 May - 21:11:17 10° NNW 21:16:22 20° NNE 21:21:13 10° ENE visible
02 May - 23:03:28 10° NW 23:10:24 65° NNE 23:16:51 10° ESE night (unlit)
03 May - 00:57:58 10° W 01:03:54 34° SSW 01:09:34 10° SE night (unlit)
03 May - 08:40:48 10° S 08:44:39 16° SSE 08:48:38 10° ESE daylight
03 May - 10:31:49 10° SW 10:38:35 54° SSE 10:45:50 10° ENE daylight
03 May - 12:25:25 10° W 12:32:22 47° NNW 12:39:42 10° NE daylight
03 May - 14:22:24 10° WNW 14:26:51 16° NNW 14:31:24 10° NNE daylight
03 May - 20:11:02 10° N 20:14:51 14° NNE 20:18:32 10° NE visible
03 May - 22:02:29 10° NW 22:09:16 43° NNE 22:15:35 10° E visible
03 May - 23:56:10 10° WNW 00:02:51 53° SSW 00:09:07 10° SE night (unlit)
04 May - 01:53:14 10° WSW 01:56:38 15° SSW 01:59:58 10° S night (unlit)
04 May - 09:31:20 10° SW 09:37:25 35° SSE 09:43:54 10° E daylight
04 May - 11:24:05 10° WSW 11:31:06 69° NNW 11:38:38 10° NE daylight
04 May - 13:19:42 10° WNW 13:25:16 22° NNW 13:31:02 10° NNE daylight
04 May - 19:11:42 10° N 19:13:08 11° NNE 19:14:34 10° NNE visible
04 May - 21:01:39 10° NNW 21:07:59 30° NNE 21:13:57 10° E visible
04 May - 22:54:40 10° WNW 23:01:48 82° SSW 23:08:26 10° ESE night (unlit)
05 May - 00:50:20 10° WSW 00:55:24 22° SSW 01:00:17 10° SSE night (unlit)
05 May - 08:31:09 10° SSW 08:36:15 23° SSE 08:41:35 10° ESE daylight
05 May - 10:23:05 10° WSW 10:29:56 82° SSE 10:37:19 10° ENE daylight
05 May - 12:17:35 10° W 12:23:49 31° NNW 12:30:24 10° NNE daylight
05 May - 14:16:41 10° NNW 14:18:42 11° NNW 14:20:43 10° N daylight
05 May - 20:01:02 10° NNW 20:06:34 22° NNE 20:11:53 10° ENE visible
05 May - 21:53:23 10° NW 22:00:41 68° NNE 22:07:27 10° ESE visible
05 May - 23:48:03 10° W 23:54:16 34° SSW 00:00:08 10° SE night (unlit)
06 May - 07:31:27 10° S 07:35:00 15° SSE 07:38:38 10° ESE daylight
06 May - 09:22:21 10° SW 09:28:49 54° SSE 09:35:45 10° ENE daylight
06 May - 11:15:55 10° W 11:22:29 45° NNW 11:29:32 10° NE daylight
06 May - 13:12:56 10° NW 13:16:57 15° NNW 13:21:07 10° NNE daylight
06 May - 19:00:40 10° NNW 19:05:00 16° NNE 19:09:13 10° NE visible
06 May - 20:52:20 10° NW 20:59:28 46° NNE 21:06:10 10° E visible
06 May - 22:46:10 10° WNW 22:53:10 53° SSW 22:59:42 10° SE night (unlit)
07 May - 00:43:23 10° WSW 00:47:02 15° SSW 00:50:35 10° S night (unlit)
07 May - 08:21:55 10° SW 08:27:44 35° SSE 08:33:54 10° E daylight
07 May - 10:14:37 10° WSW 10:21:18 66° NNW 10:28:29 10° NE daylight
07 May - 12:10:14 10° WNW 12:15:24 21° NNW 12:20:47 10° NNE daylight
07 May - 18:00:57 10° N 18:03:16 11° NNE 18:05:34 10° NE daylight
07 May - 19:51:27 10° NW 19:58:08 32° NNE 20:04:30 10° E visible
07 May - 21:44:35 10° WNW 21:52:03 80° SSW 21:58:58 10° SE visible
07 May - 23:40:23 10° WSW 23:45:45 23° SSW 23:50:53 10° SSE night (unlit)
